TimeHST,TemperatureF,Dew PointF,Humidity,Sea Level PressureIn,VisibilityMPH,Wind Direction,Wind SpeedMPH,Gust SpeedMPH,PrecipitationIn,Events,Conditions,WindDirDegrees,DateUTC
12:00 AM,69.8,66.2,88,29.96,10.0,ESE,3.5,-,N/A,,Light Drizzle,110,2012-12-09 10:00:00
12:13 AM,69.8,66.2,88,29.96,10.0,SE,3.5,-,N/A,,Mostly Cloudy,130,2012-12-09 10:13:00
12:55 AM,69.6,63.7,81,29.95,10.0,Variable,3.5,-,0.00,,Clear,0,2012-12-09 10:55:00
1:55 AM,67.8,62.4,83,29.94,10.0,Calm,Calm,-,N/A,,Clear,0,2012-12-09 11:55:00
2:55 AM,67.3,61.5,82,29.94,10.0,Calm,Calm,-,N/A,,Clear,0,2012-12-09 12:55:00
3:55 AM,66.6,60.6,81,29.93,10.0,Calm,Calm,-,N/A,,Clear,0,2012-12-09 13:55:00
4:55 AM,69.3,62.6,79,29.92,10.0,ESE,6.9,-,N/A,,Clear,120,2012-12-09 14:55:00
5:55 AM,69.8,62.8,78,29.93,10.0,Variable,3.5,-,N/A,,Partly Cloudy,0,2012-12-09 15:55:00
6:55 AM,68.9,62.8,81,29.96,10.0,Calm,Calm,-,N/A,,Partly Cloudy,0,2012-12-09 16:55:00
7:25 AM,69.8,64.4,83,29.96,10.0,SSE,4.6,-,N/A,,Light Drizzle,150,2012-12-09 17:25:00
7:31 AM,69.8,64.4,83,29.96,10.0,Calm,Calm,-,N/A,,Light Drizzle,0,2012-12-09 17:31:00
7:33 AM,69.8,64.4,83,29.96,10.0,South,3.5,-,N/A,,Mostly Cloudy,190,2012-12-09 17:33:00
7:41 AM,69.8,64.4,83,29.96,10.0,Calm,Calm,-,N/A,,Mostly Cloudy,0,2012-12-09 17:41:00
7:55 AM,70.2,64.8,83,29.95,10.0,Variable,3.5,-,0.00,,Mostly Cloudy,0,2012-12-09 17:55:00
8:55 AM,72.9,65.5,78,29.95,10.0,ESE,5.8,-,N/A,,Mostly Cloudy,110,2012-12-09 18:55:00
9:51 AM,75.2,64.4,69,29.95,10.0,East,11.5,-,N/A,,Overcast,100,2012-12-09 19:51:00
9:55 AM,74.7,64.8,71,29.95,10.0,ESE,9.2,-,N/A,,Overcast,120,2012-12-09 19:55:00
10:04 AM,75.2,64.4,69,29.95,10.0,East,11.5,-,N/A,,Mostly Cloudy,100,2012-12-09 20:04:00
10:13 AM,75.2,64.4,69,29.94,10.0,ESE,11.5,-,N/A,,Overcast,110,2012-12-09 20:13:00
10:14 AM,75.2,64.4,69,29.94,10.0,East,10.4,-,N/A,,Overcast,100,2012-12-09 20:14:00
10:21 AM,75.2,64.4,69,29.95,10.0,ESE,10.4,-,N/A,,Overcast,110,2012-12-09 20:21:00
10:23 AM,75.2,64.4,69,29.95,10.0,ESE,9.2,-,N/A,,Overcast,110,2012-12-09 20:23:00
10:26 AM,75.2,64.4,69,29.95,10.0,East,11.5,-,N/A,,Overcast,100,2012-12-09 20:26:00
10:28 AM,75.2,64.4,69,29.95,10.0,East,12.7,-,N/A,,Overcast,90,2012-12-09 20:28:00
10:32 AM,75.2,64.4,69,29.95,10.0,East,13.8,-,N/A,,Overcast,90,2012-12-09 20:32:00
10:34 AM,75.2,64.4,69,29.95,10.0,ESE,12.7,-,N/A,,Overcast,110,2012-12-09 20:34:00
10:37 AM,75.2,64.4,69,29.95,10.0,ESE,9.2,-,N/A,,Mostly Cloudy,110,2012-12-09 20:37:00
10:55 AM,76.5,64.4,66,29.94,10.0,ESE,12.7,-,N/A,,Mostly Cloudy,110,2012-12-09 20:55:00
11:09 AM,77.0,64.4,65,29.93,10.0,East,13.8,21.9,N/A,,Mostly Cloudy,100,2012-12-09 21:09:00
11:26 AM,77.0,64.4,65,29.92,10.0,East,15.0,20.7,N/A,,Mostly Cloudy,90,2012-12-09 21:26:00
11:33 AM,77.0,64.4,65,29.92,10.0,East,12.7,18.4,N/A,,Mostly Cloudy,100,2012-12-09 21:33:00
11:38 AM,77.0,64.4,65,29.91,10.0,East,13.8,20.7,N/A,,Mostly Cloudy,90,2012-12-09 21:38:00
11:53 AM,78.8,64.4,61,29.91,10.0,East,12.7,17.3,N/A,,Mostly Cloudy,100,2012-12-09 21:53:00
11:55 AM,78.3,64.9,63,29.91,10.0,ESE,10.4,17.3,N/A,,Mostly Cloudy,120,2012-12-09 21:55:00
11:57 AM,77.0,64.4,65,29.91,10.0,East,11.5,18.4,N/A,,Mostly Cloudy,100,2012-12-09 21:57:00
12:42 PM,78.8,64.4,61,29.90,10.0,East,15.0,21.9,N/A,,Mostly Cloudy,80,2012-12-09 22:42:00
12:46 PM,77.0,64.4,65,29.89,10.0,East,13.8,21.9,N/A,,Mostly Cloudy,80,2012-12-09 22:46:00
12:55 PM,76.8,64.2,65,29.89,10.0,East,16.1,19.6,N/A,,Overcast,80,2012-12-09 22:55:00
1:02 PM,77.0,64.4,65,29.89,10.0,East,15.0,-,N/A,,Overcast,90,2012-12-09 23:02:00
1:04 PM,77.0,64.4,65,29.88,10.0,East,13.8,-,N/A,,Overcast,90,2012-12-09 23:04:00
1:07 PM,77.0,64.4,65,29.88,10.0,East,17.3,-,N/A,,Overcast,90,2012-12-09 23:07:00
1:08 PM,77.0,64.4,65,29.88,10.0,East,16.1,-,N/A,,Overcast,90,2012-12-09 23:08:00
1:17 PM,77.0,64.4,65,29.88,10.0,East,15.0,-,N/A,,Mostly Cloudy,90,2012-12-09 23:17:00
1:19 PM,77.0,64.4,65,29.88,10.0,East,16.1,-,N/A,,Mostly Cloudy,80,2012-12-09 23:19:00
1:55 PM,76.6,64.9,67,29.89,10.0,ESE,9.2,-,N/A,,Mostly Cloudy,110,2012-12-09 23:55:00
2:55 PM,76.5,64.4,66,29.88,10.0,East,12.7,-,N/A,,Overcast,90,2012-12-10 00:55:00
3:55 PM,75.6,64.2,68,29.89,10.0,ENE,11.5,-,N/A,,Mostly Cloudy,70,2012-12-10 01:55:00
4:55 PM,74.1,64.0,71,29.91,10.0,ENE,9.2,-,N/A,,Scattered Clouds,70,2012-12-10 02:55:00
5:55 PM,72.7,64.0,74,29.92,10.0,East,6.9,-,N/A,,Scattered Clouds,80,2012-12-10 03:55:00
6:55 PM,71.4,64.0,77,29.94,10.0,East,4.6,-,N/A,,Partly Cloudy,80,2012-12-10 04:55:00
7:35 PM,71.6,64.4,78,29.95,10.0,Calm,Calm,-,N/A,,Overcast,0,2012-12-10 05:35:00
7:55 PM,71.6,64.2,77,29.96,10.0,ESE,5.8,-,N/A,,Overcast,110,2012-12-10 05:55:00
8:20 PM,71.6,64.4,78,29.96,10.0,Variable,4.6,-,N/A,,Mostly Cloudy,0,2012-12-10 06:20:00
8:33 PM,71.6,64.4,78,29.96,10.0,ESE,4.6,-,N/A,,Mostly Cloudy,110,2012-12-10 06:33:00
8:55 PM,72.1,64.2,76,29.97,10.0,SE,4.6,-,N/A,,Overcast,140,2012-12-10 06:55:00
9:51 PM,71.6,64.4,78,29.97,10.0,East,9.2,-,N/A,,Mostly Cloudy,100,2012-12-10 07:51:00
9:55 PM,72.0,64.6,77,29.97,10.0,ESE,5.8,-,N/A,,Mostly Cloudy,110,2012-12-10 07:55:00
9:56 PM,71.6,64.4,78,29.97,10.0,ESE,5.8,-,N/A,,Mostly Cloudy,120,2012-12-10 07:56:00
10:05 PM,71.6,64.4,78,29.97,10.0,Variable,4.6,-,N/A,,Light Drizzle,0,2012-12-10 08:05:00
10:14 PM,71.6,64.4,78,29.98,10.0,SE,4.6,-,N/A,,Mostly Cloudy,140,2012-12-10 08:14:00
10:24 PM,71.6,66.2,83,29.98,10.0,ESE,5.8,-,N/A,,Light Drizzle,120,2012-12-10 08:24:00
10:33 PM,71.6,66.2,83,29.98,10.0,ESE,6.9,-,N/A,,Mostly Cloudy,110,2012-12-10 08:33:00
10:55 PM,70.9,64.8,81,29.99,10.0,ESE,5.8,-,0.00,,Scattered Clouds,110,2012-12-10 08:55:00
11:55 PM,70.7,64.4,80,29.98,10.0,SE,3.5,-,N/A,,Partly Cloudy,140,2012-12-10 09:55:00